Regional Weather Roundup
Issued by NWS

Home | Current Version | Previous Version | Graphics & Text | Print | Product List | Glossary On
Versions: 1 2 3 4 5 6 7 8 9 10 11 12 13 14 15 16 17 18 19 20 21 22 23 24 25 26 27 28 29 30 31 32 33 34 35 36 37 38 39 40 41 42 43 44 45 46 47 48 49 50
000
ASUS43 KMKX 301711
RWRWI

WISCONSIN REGIONAL WEATHER ROUNDUP
NATIONAL WEATHER SERVICE MILWAUKEE/SULLIVAN WI
1200 PM CDT THU OCT 30 2014

NOTE: "FAIR" INDICATES FEW OR NO CLOUDS BELOW 12,000 FEET WITH NO
SIGNIFICANT WEATHER AND/OR OBSTRUCTIONS TO VISIBILITY.

WIZ001-002-006>008-014>016-023>028-301800-
NORTHWEST WISCONSIN

CITY           SKY/WX    TMP DP  RH WIND       PRES   REMARKS
SUPERIOR ARPT  CLOUDY    42  33  69 N7        30.11R
ASHLAND        CLOUDY    41  34  76 W7        30.09S
HAYWARD        CLOUDY    39  32  76 CALM      30.09R
SIREN          CLOUDY    41  33  72 N5        30.11R
CUMBERLAND     CLOUDY    41  32  70 N3        30.09R
RICE LAKE      CLOUDY    42  34  71 N5        30.10R
CHETEK         CLOUDY    43  35  71 NW5       30.09R
LADYSMITH      CLOUDY    41  33  74 NW5       30.09S
EAU CLAIRE     CLOUDY    46  35  65 NW5       30.08S
MENOMONIE      MOSUNNY   46  36  67 CALM      30.09R
NEW RICHMOND   CLOUDY    45  35  67 N3        30.10R
OSCEOLA        CLOUDY    44  35  69 N5        30.13R
$$

WIZ003>005-009-010-017-018-301800-
NORTH CENTRAL WISCONSIN

CITY           SKY/WX    TMP DP  RH WIND       PRES   REMARKS
MANITOWISH WTR CLOUDY    37  32  84 W6        30.04S WCI  32
ARBOR VITAE    CLOUDY    39  33  78 NW6       30.04S WCI  35
WOODRUFF       CLOUDY    39  33  78 NW6       30.04S WCI  35
RHINELANDER    CLOUDY    39  32  76 W9        30.05S WCI  33
EAGLE RIVER    CLOUDY    38  31  74 NW9       30.03S WCI  32
LAND O LAKES   LGT RAIN  38  33  82 W5        30.04S WCI  34
PHILLIPS       CLOUDY    39  32  75 W5        30.05S
TOMAHAWK       PTSUNNY   40  32  71 CALM      30.06S
MEDFORD        CLOUDY    40  33  77 W6        30.06S
MERRILL        CLOUDY    39  33  80 NW5       30.06F
$$

WIZ029-030-035-036-043>047-301800-
CENTRAL WISCONSIN

CITY           SKY/WX    TMP DP  RH WIND       PRES   REMARKS
WAUSAU         CLOUDY    39  34  82 W3        30.06S
MOSINEE        PTSUNNY   41  36  81 W7        30.07S
MARSHFIELD     CLOUDY    46  36  68 VRB3      30.06S
STEVENS POINT  CLOUDY    41  33  71 W7        30.07F
WAUPACA        PTSUNNY   49  36  61 W6        30.08S
WAUTOMA        CLOUDY    47  35  63 W6        30.08F
WISC RAPIDS    CLOUDY    46  34  62 W7        30.09S
CAMP DOUGLAS   CLOUDY    46  37  71 W7        30.08S
$$

WIZ011>013-019>022-031-037>040-048>050-301800-
NORTHEAST WISCONSIN

CITY           SKY/WX    TMP DP  RH WIND       PRES   REMARKS
ANTIGO         CLOUDY    38  33  82 W7        30.05S WCI  33
SHAWANO        CLOUDY    44  35  69 W6        30.07F
OCONTO         CLOUDY    45  34  66 W10       30.06S
STURGEON BAY   CLOUDY    45  34  65 SW13      30.06F
GREEN BAY      CLOUDY    45  35  68 W9        30.07F
MANITOWOC      CLOUDY    46  36  68 W12       30.08S
APPLETON       PTSUNNY   45  34  65 W8        30.08S
CLINTONVILLE   CLOUDY    43  32  65 W7        30.07F
OSHKOSH        PTSUNNY   47  35  63 W7        30.07F
$$

WIZ032>034-041-042-053>061-301800-
SOUTHWEST WISCONSIN

CITY           SKY/WX    TMP DP  RH WIND       PRES   REMARKS
LA CROSSE      CLOUDY    45  36  70 S5        30.09S
SPARTA         CLOUDY    43  36  75 CALM      30.10R
VIROQUA        CLOUDY    43  35  74 SW5       30.08S
BOSCOBEL       CLOUDY    47  36  65 CALM      30.10S
PRAIRIE DU CHI CLOUDY    46  36  68 CALM      30.09S
PLATTEVILLE    PTSUNNY   48  37  65 SW6       30.09F
$$

WIZ056-057-062-063-064-067-068-301800-
SOUTH CENTRAL WISCONSIN

CITY           SKY/WX    TMP DP  RH WIND       PRES   REMARKS
REEDSBURG      CLOUDY    45  36  68 SW6       30.08F
BARABOO/DELLS  PTSUNNY   46  34  64 SW5       30.08F
LONE ROCK      CLOUDY    50  36  58 CALM      30.10S
MINERAL POINT  CLOUDY    50  34  53 SW5       30.09S
MADISON        CLOUDY    47  35  63 CALM      30.09F
MIDDLETON      CLOUDY    49  34  55 W3        30.09F
WATERTOWN      PTSUNNY   46  35  66 SW6       30.09S
MONROE         PTSUNNY   48  36  61 W7        30.09S
JANESVILLE     CLOUDY    46  36  66 CALM      30.10S
$$

WIZ051-052-058>065-066-070>072-301800-
SOUTHEAST WISCONSIN

CITY           SKY/WX    TMP DP  RH WIND       PRES   REMARKS
MILWAUKEE      PTSUNNY   48  33  56 SW10      30.10S
WAUKESHA       SUNNY     46  34  61 SW6       30.10F
MILWAUKEE/TIMM SUNNY     46  34  61 SW9       30.10S
RACINE         PTSUNNY   48  33  56 W9        30.11F
BURLINGTON     MOSUNNY   47  33  59 SW12      30.09F
KENOSHA        CLOUDY    49  35  58 W13       30.10F
FOND DU LAC    PTSUNNY   47  35  63 W8        30.08F
SHEBOYGAN      PTSUNNY   48  34  58 SW8       30.08S
WEST BEND      PTSUNNY   45  32  61 W10       30.08S
JUNEAU         MOSUNNY   45  36  70 SW8       30.10S
$$

LSZ147-162-301800-
LAKE SUPERIOR

STATION/POSITION TIME  TEMP    WIND        PRES    WAVE
                       AIR SEA DIR/SP/G            HT/PER
                 (UTC) (F)     (DEG/KT/KT) (MB)    (FT/S)
W MID LAKE BUOY  1650   42 45  310/ 12/ 14 1017.5R   1/ 4
DEVILS ISLAND    1700   41     300/  8/ 10 1018.7R
PORT WING        1600   41     300/  8/ 12 1019.0R
SAXON HARBOR     1600   41     280/  4/  7 1018.3S
$$

LMZ867-665-643>646-301800-
LAKE MICHIGAN

STATION/POSITION TIME  TEMP    WIND        PRES    WAVE
                       AIR SEA DIR/SP/G            HT/PER
                 (UTC) (F)     (DEG/KT/KT) (MB)    (FT/S)
CHAMBERS ISLAND  1600   44     240/  9/ 15 1017.9S
N MID LAKE BUOY  1650   46 51  250/ 14/ 17 1017.6F   0
NORTHPORT PIER   1600   45     210/  3/ 11 1017.9R
KEWAUNEE LAKESHO 1600   45     250/  4/  6 1017.5F
SHEBOYGAN LAKESH 1700   47 50  250/ 10/ 11 1019.2F
PORT WASHINGTON  1640   48     270/  8/ 12 1019.6F
ATWATER BUOY     1700   48     260/ 10/ 12 1019.9F
MILWAUKEE LAKESH 1600   45     250/  7/  8   N/A
S MID LAKE BUOY  1650   47 53  220/ 12/ 14 1019.7F   2/ 3
KENOSHA   LAKESH 1700   48     250/  9/ 14 1019.3S
$$

TC  - TEMPERATURE IN CELSIUS
VSB - VISIBILITY IN STATUTE MILES
WCI - WIND CHILL INDEX
HX  - HEAT INDEX




USA.gov is the U.S. government's official web portal to all federal, state and local government web resources and services.